Location: Gleizolles
(44.4833°N, 6.7667°E)
Time: 00:30:39
(UTC+00:00)

Vanguard 2 Rocket - Pass Details

Date: 23 June 2024
Orbit: 555 x 3302 km, 32.9° (Epoch: 24 July)

Event Time Altitude Azimuth Distance (km) Brightness Sun altitude
Rises 22:18:49 0° 183° (S) 6,116 - -19.9°
Reaches altitude 10° 22:24:52 10° 166° (SSE) 5,564 - -20.2°
Exits shadow 22:33:25 17° 136° (SE) 5,399 10.3 -20.6°
Maximum altitude 22:34:34 17° 132° (SE) 5,433 10.3 -20.7°
Drops below altitude 10° 22:45:15 10° 99° (E) 6,259 10.9 -21.1°
Sets 22:52:39 0° 83° (E) 7,198 11.4 -21.4°
